Orbital Elements at Epoch 2459200.5 (2020-Dec-17.0) TDB
Reference: JPL 24 (heliocentric ecliptic J2000)
Element | Value | Uncertainty (1-sigma) | Units |
e | .1902331084677338 | 3.4948e-08 | |
a | 2.453580098317651 | 9.3263e-09 | au |
q | 1.986827929340117 | 8.7812e-08 | au |
i | 2.766071361485077 | 4.7687e-06 | deg |
node | 27.98520627140363 | 0.00010479 | deg |
peri | 14.63160270236324 | 0.000106 | deg |
M | 179.3951563222961 | 1.6971e-05 | deg |
tp | 2458500.968944813233 (2019-Jan-17.46894481) | 6.4495e-05 | TDB |
period | 1403.779148946495 3.84 | 8.0038e-06 2.191e-08 | d yr |
n | .2564505964276304 | 1.4622e-09 | deg/d |
Q | 2.920332267295186 | 1.11e-08 | au |
|
| | Orbit Determination Parameters
Additional Information
|